Location: Góry Miechowskie
(50.3599°N, 20.1803°E)
Time: 01:45:14
(UTC+00:00)

Transit 2A Rocket - Pass Details

Date: 21 September 2024
Orbit: 582 x 908 km, 66.7° (Epoch: 10 October)

Event Time Altitude Azimuth Distance (km) Brightness Sun altitude
Rises 03:41:39 0° 322° (NW) 3,526 8.1 -7.6°
Reaches altitude 10° 03:44:28 10° 331° (NNW) 2,558 7.5 -7.2°
Maximum altitude 03:49:53 35° 36° (NE) 1,344 6.8 -6.3°
Drops below altitude 10° 03:54:57 10° 102° (ESE) 2,387 9.0 -5.5°
Sets 03:57:29 0° 111° (ESE) 3,261 9.5 -5.1°
